カタログに戻る

FENGYUN 1C DEB

運用中PO
NORAD 30132·DEBRIS·🇨🇳 China

打ち上げ May 10, 1999 から Taiyuan Satellite Launch Center

Loading…

次のパス (今後24時間)

TLE

最新Source: Space-Track

元期: Sep 14, 2026, 17:23 UTC

1 30132U 99025SM  26257.72455341  .00000365  00000-0  29221-3 0  9990
2 30132  99.6091 227.2664 0105504  27.9083 146.8587 13.95123600999374

AllMySatでFENGYUN 1C DEBをリアルタイム追跡

Download on the App Store